| ตารางข้อมูล | TH20402 | TH4529A | TH4529D | TH814 | ค้นข้อมูล1 | ค้นข้อมูล2 | ค่าสูงสุด-ต่ำสุด |  

Select Sensor -->| 20402 | 4529A | 4529D | 814 | 824 | 834 | 844 | หน้าจอย่อ | 4529 |
Data of room  4529D

IDRoomDate  Temp  Humidity
 146986  4529D  2022-08-18 08:37:07  30.4  64.7 
 146982  4529D  2022-08-18 08:17:05  30.2  65.0 
 146978  4529D  2022-08-18 07:57:02  30.6  66.5 
 146974  4529D  2022-08-18 07:37:00  30.6  66.1 
 146970  4529D  2022-08-18 07:16:58  30.3  66.1 
 146966  4529D  2022-08-18 06:56:55  30.4  65.7 
 146962  4529D  2022-08-18 06:36:53  30.3  65.7 
 146958  4529D  2022-08-18 06:16:51  30.1  66.3 
 146954  4529D  2022-08-18 05:56:48  30.3  65.9 
 146950  4529D  2022-08-18 05:36:46  30.7  65.6 
 146946  4529D  2022-08-18 05:16:44  30.4  65.9 
 146942  4529D  2022-08-18 04:56:41  30.5  65.6 
 146938  4529D  2022-08-18 04:36:39  30.7  64.9 
 146934  4529D  2022-08-18 04:16:36  30.7  65.4 
 146930  4529D  2022-08-18 03:56:34  30.8  64.9 
 146926  4529D  2022-08-18 03:36:32  31.1  64.3 
 146922  4529D  2022-08-18 03:16:29  30.9  64.8 
 146918  4529D  2022-08-18 02:56:27  31.1  64.5 
 146914  4529D  2022-08-18 02:36:24  31.3  63.8 
 146910  4529D  2022-08-18 02:16:22  31.3  64.5 
 146906  4529D  2022-08-18 01:56:20  31.4  63.6 
 146902  4529D  2022-08-18 01:36:17  31.6  63.1 
 146898  4529D  2022-08-18 01:16:15  31.5  63.6 
 146894  4529D  2022-08-18 00:56:13  31.6  62.6 
 146890  4529D  2022-08-18 00:36:10  31.8  61.8 
 146886  4529D  2022-08-18 00:16:08  31.7  62.3 
 146882  4529D  2022-08-17 23:56:05  31.8  61.3 
 146878  4529D  2022-08-17 23:36:03  32.2  60.5 
 146874  4529D  2022-08-17 23:16:01  31.8  61.6 
 146870  4529D  2022-08-17 22:55:58  32.0  60.4 
 146866  4529D  2022-08-17 22:35:56  32.2  59.3 
 146862  4529D  2022-08-17 22:15:54  31.7  59.5 
 146858  4529D  2022-08-17 21:55:51  32.0  58.9 
 146854  4529D  2022-08-17 21:35:49  32.1  58.5 
 146850  4529D  2022-08-17 21:15:46  31.6  58.4 
 146846  4529D  2022-08-17 20:55:44  31.8  57.7 
 146842  4529D  2022-08-17 20:35:42  31.8  56.7 
 146838  4529D  2022-08-17 20:15:39  31.8  58.1 
 146834  4529D  2022-08-17 19:55:37  31.9  58.0 
 146830  4529D  2022-08-17 19:35:35  32.0  58.0 
 146826  4529D  2022-08-17 19:15:32  31.8  58.6 
 146822  4529D  2022-08-17 18:55:30  31.9  58.4 
 146818  4529D  2022-08-17 18:35:28  32.0  58.1 
 146814  4529D  2022-08-17 18:15:25  31.8  58.7 
 146810  4529D  2022-08-17 17:55:23  32.0  58.3 
 146806  4529D  2022-08-17 17:35:20  32.1  57.9 
 146802  4529D  2022-08-17 17:15:18  31.8  58.1 
 146798  4529D  2022-08-17 16:55:16  32.1  56.9 
 146794  4529D  2022-08-17 16:35:13  32.1  56.7 
 146790  4529D  2022-08-17 16:15:11  31.7  57.3 
 146786  4529D  2022-08-17 15:55:09  31.8  55.9 
 146782  4529D  2022-08-17 15:35:06  32.0  55.7 
 146778  4529D  2022-08-17 15:15:04  31.7  55.6 
 146774  4529D  2022-08-17 14:55:01  31.7  54.8 
 146770  4529D  2022-08-17 14:34:59  31.5  54.2 
 146766  4529D  2022-08-17 14:14:57  31.5  54.4 
 146762  4529D  2022-08-17 13:54:54  31.2  54.3 
 146758  4529D  2022-08-17 13:34:52  31.2  52.8 
 146754  4529D  2022-08-17 13:14:50  30.7  51.5 
 146750  4529D  2022-08-17 12:54:47  30.6  49.5 
 146746  4529D  2022-08-17 12:34:45  30.4  48.4 
 146742  4529D  2022-08-17 12:14:42  30.2  52.9 
 146738  4529D  2022-08-17 11:54:40  30.3  57.2 
 146734  4529D  2022-08-17 11:34:38  30.6  63.9 
 146730  4529D  2022-08-17 11:14:35  30.3  67.0 
 146726  4529D  2022-08-17 10:54:33  30.4  66.1 
 146722  4529D  2022-08-17 10:34:31  30.4  65.6 
 146718  4529D  2022-08-17 10:14:28  30.0  67.9 
 146714  4529D  2022-08-17 09:54:26  29.9  67.6 
 146710  4529D  2022-08-17 09:34:23  29.9  67.7 
 146706  4529D  2022-08-17 09:14:21  29.8  67.0 
 146702  4529D  2022-08-17 08:54:19  29.9  66.5 

Data every 20 minute.


Data of room  4529D


Data every 20 minute.

  Show Graph